Location: North Fort Myers
(26.6673°N, 81.8801°W)
Time: 09:38:19
(UTC+00:00)

X-37B - Pass Details

Date: 16 August 2022
Orbit: 329 x 342 km, 45.0° (Epoch: 29 September)

Event Time Altitude Azimuth Distance (km) Brightness Sun altitude
Exits shadow 09:20:01 - 344° (NNW) 1,504 3.7 -21.5°
Reaches altitude 10° 09:20:54 10° 357° (N) 1,278 3.5 -21.3°
Maximum altitude 09:22:27 14° 30° (NNE) 1,094 3.6 -21.0°
Drops below altitude 10° 09:24:00 10° 63° (ENE) 1,278 4.4 -20.7°
Sets 09:26:43 0° 92° (E) 2,116 5.3 -20.2°
